Regional Weather Roundup
Issued by NWS

Home | Current Version | Previous Version | Graphics & Text | Print | Product List | Glossary On
Versions: 1 2 3 4 5 6 7 8 9 10 11 12 13 14 15 16 17 18 19 20 21 22 23 24 25 26 27 28 29
000
ASUS45 KTFX 290710
RWRMT
MONTANA REGIONAL WEATHER ROUNDUP
NATIONAL WEATHER SERVICE GREAT FALLS MT
100 AM MDT FRI APR 29 2016

NOTE: "FAIR" INDICATES FEW OR NO CLOUDS BELOW 12000 FEET WITH NO
SIGNIFICANT WEATHER AND/OR OBSTRUCTIONS TO VISIBILITY.

MTZ001>007-043-290800-
WEST OF THE DIVIDE

CITY           SKY/WX    TMP DP  RH WIND       PRES   REMARKS
KALISPELL      CLOUDY    44  36  73 CALM      29.99F
MISSOULA       CLOUDY    38  31  76 N3        30.00F
BUTTE          CLOUDY    33  27  78 S10       29.98S WCI  25
MULLAN PASS    CLOUDY    31  28  89 VRB3      29.96S
ANACONDA         N/A     34  27  75 E3        29.98S
DEER LODGE       N/A     34  27  75 W8        29.99F WCI  27
EUREKA           N/A     39  34  81 CALM      30.02S
HAMILTON         N/A     37  36  93 CALM      29.98S
LIBBY            N/A     41  34  75 SE5       30.01F
$$

MTZ008-052>055-290800-
SOUTHWEST MONTANA

CITY           SKY/WX    TMP DP  RH WIND       PRES   REMARKS
BOZEMAN        CLOUDY    36  29  75 NE6       30.00S WCI  31
DILLON         CLOUDY    36  26  67 NE8       29.95F WCI  30
ENNIS          CLOUDY    34  28  80 N6        30.02S WCI  29
THREE FORKS      N/A     38  30  73 CALM      29.99F
TWIN BRIDGES     N/A     37  24  60 N13       29.96S WCI  29
$$

MTZ009-010-012-014-046-048-049-054-290800-
EAST SLOPES AND CENTRAL MONTANA

CITY           SKY/WX    TMP DP  RH WIND       PRES   REMARKS
CUT BANK       MOCLDY    36  35  96 NE3       30.05F
GREAT FALLS    CLOUDY    38  32  79 E10       30.03F WCI  31
MALMSTROM AFB  CLOUDY    37  35  92 N1        30.04F
HELENA         CLOUDY    39  33  79 W5        30.00F
CHOTEAU          N/A     36  36 100 NE6       30.04F WCI  31
CONRAD           N/A     38  38 100 E2        30.07S
$$

MTZ011-013-016-021-045-047-050-051-290800-
NORTH CENTRAL MONTANA

CITY           SKY/WX    TMP DP  RH WIND       PRES   REMARKS
HAVRE          CLOUDY    42  38  85 CALM      30.09F
LEWISTOWN      CLOUDY    37  32  82 E6        30.05F
N BAR RANCH    CLOUDY    34  32  93 E3        30.07F
CHINOOK          N/A     41  37  87 E3        30.11S
$$

MTZ017>020-022>027-061-062-290800-
NORTHEAST MONTANA

CITY           SKY/WX    TMP DP  RH WIND       PRES   REMARKS
GLASGOW        CLOUDY    40  33  76 CALM      30.14R
JORDAN           N/A     41  36  82 E5        30.11F
SIDNEY         CLOUDY    43  30  61 NW5       30.16S
WOLF POINT     CLOUDY    43  35  73 SE3       30.16R
PLENTYWOOD       N/A     43  19  39 NE8       30.17S
POPLAR           N/A     45  32  61 E3        30.16R
$$

MTZ028>42-056>058-290800-
SOUTHCENTRAL AND SOUTHEAST MONTANA

CITY           SKY/WX    TMP DP  RH WIND       PRES   REMARKS
BAKER          CLOUDY    38  34  85 CALM      30.14F
BILLINGS       CLOUDY    36  34  92 N5        30.06F
LIVINGSTON     PTCLDY    34  28  79 E10       30.01F WCI  26
MILES CITY     CLOUDY    40  35  83 E3        30.12F
EKALAKA          N/A     35  30  82 E1        30.08S
FORSYTH          N/A     39  39 100 E5        30.11S
LAUREL           N/A     34  26  72 N2        30.03F
ROUNDUP          N/A     36  32  85 CALM      29.98F
$$

REGIONAL REPORTS...DAKOTAS

CITY           SKY/WX    TMP DP  RH WIND       PRES   REMARKS
WILLISTON      PTCLDY    40  28  62 NE6       30.17S
MINOT          PTCLDY    43  19  38 NE7       30.19S
DICKINSON      MOCLDY    39  26  59 E3        30.12S
BEACH          CLOUDY    39  39 100 N5        30.17S
CROSBY           N/A     32  19  59 E6        30.21S WCI  26
TIOGA            N/A     32  23  69 E5        30.23S
WATFORD CITY     N/A     39  28  65 E6        30.17R
BISMARCK       PTCLDY    39  32  76 NE7       30.16S
GRAND FORKS    CLOUDY    35  27  72 N6        30.17S WCI  30
FARGO          CLOUDY    38  28  67 N6        30.14R
BUFFALO SD       N/A     38  32  79 N3        30.06F
RAPID CITY     CLOUDY    36  34  92 CALM      30.13S
$$

REGIONAL REPORTS...WYOMING/IDAHO/WASHINGTON

CITY           SKY/WX    TMP DP  RH WIND       PRES   REMARKS
GILLETTE       CLOUDY    34  33  96 CALM      30.08S
SHERIDAN       CLOUDY    37  32  82 E3        30.07S
BUFFALO WY       N/A    N/A N/A N/A MISG      30.07S
CODY           CLOUDY    34  30  86 CALM      30.03S
YELLOWSTONE LA   N/A     28  22  78 CALM      29.96S
IDAHO FALLS    CLOUDY    40  27  59 CALM      29.90S
SALMON         CLOUDY    39  32  75 E3        29.94F
BOISE          MOCLDY    53  34  48 NW13      29.88R
SPOKANE        CLOUDY    53  34  48 SE5       29.97R
$$

REGIONAL REPORTS...ALBERTA

CITY           SKY/WX    TMP DP  RH WIND       PRES   REMARKS
EDMONTON       PTCLDY    50  30  46 S16       29.97F
CALGARY        MOCLDY    41  28  60 S9        30.01F
LETHBRIDGE     PTCLDY    34  34 100 S9        30.04F WCI  26
MEDICINE HAT   CLOUDY    41  34  75 CALM      30.07S
WATERTON GATE    N/A     30  28  93 NE3         N/A
CARDSTON         N/A     34  30  86 SW2         N/A
MILK RIVER       N/A     37  36  93 S6          N/A
ONEFOUR          N/A     39  34  81 SE2         N/A
$$

REGIONAL REPORTS...SASKATCHEWAN

CITY           SKY/WX    TMP DP  RH WIND       PRES   REMARKS
SWIFT CURRENT  PTCLDY    36  25  64 SE8       30.11S WCI  29
REGINA         PTCLDY    39  18  41 SE10      30.20S
SASKATOON      MOCLDY    41  27  56 SE9       30.18F
CYPRESS HILLS    N/A     36  28  75 S5          N/A
VAL MARIE        N/A     34  30  86 E5          N/A
ROCKGLEN         N/A     41  21  45 SE9         N/A
ASSINIBOIA       N/A     43  32  65 SE6         N/A
$$




USA.gov is the U.S. government's official web portal to all federal, state and local government web resources and services.